• In Portugal
  • List of Countries
  • For 7 days
  • Water Temperature
  • Satellite Maps
  • Weather Map
  • Weather Widgets
  • user-avatar
    Login

    Hourly Weather Ruse

    Today, 14 November, Wednesday

    Time Temperature Precipitation Wind Pressure Humidity
    00:00 +8°C° 0 mm 2 mps 766 mmHg 84%
    01:00 +7°C° 0 mm 2 mps 766 mmHg 85%
    02:00 +7°C° 0 mm 2 mps 765 mmHg 86%
    03:00 +8°C° 0 mm 1 mps 765 mmHg 86%
    04:00 +8°C° 0 mm 1 mps 765 mmHg 87%
    05:00 +8°C° 0 mm 1 mps 764 mmHg 87%
    06:00 +8°C° 0 mm 1 mps 764 mmHg 86%
    07:00 +8°C° 0 mm 1 mps 764 mmHg 85%
    08:00 +8°C° 0 mm 1 mps 764 mmHg 84%
    09:00 +10°C° 0 mm 1 mps 764 mmHg 79%
    10:00 +10°C° 0 mm 2 mps 763 mmHg 73%
    11:00 +12°C° 0 mm 2 mps 763 mmHg 67%
    12:00 +13°C° 0 mm 2 mps 763 mmHg 64%
    13:00 +14°C° 0 mm 2 mps 762 mmHg 61%
    14:00 +13°C° 0 mm 3 mps 762 mmHg 58%
    15:00 +14°C° 0 mm 2 mps 762 mmHg 60%
    16:00 +13°C° 0 mm 2 mps 761 mmHg 62%
    17:00 +13°C° 0 mm 1 mps 761 mmHg 64%
    18:00 +13°C° 0 mm 1 mps 761 mmHg 66%
    19:00 +13°C° 0 mm 1 mps 761 mmHg 67%
    20:00 +12°C° 0 mm 1 mps 761 mmHg 69%
    21:00 +12°C° 0.2 mm 1 mps 761 mmHg 72%
    22:00 +12°C° 0.2 mm 1 mps 762 mmHg 74%
    23:00 +12°C° 0.2 mm 2 mps 762 mmHg 77%

    Tomorrow, 15 November, Thursday

    Time Temperature Precipitation Wind Pressure Humidity
    00:00 +10°C° 0.6 mm 2 mps 761 mmHg 79%
    01:00 +10°C° 0.6 mm 2 mps 761 mmHg 81%
    02:00 +9°C° 0.6 mm 3 mps 761 mmHg 83%
    03:00 +9°C° 1.5 mm 3 mps 761 mmHg 84%
    04:00 +7°C° 1.5 mm 4 mps 761 mmHg 85%
    05:00 +7°C° 1.5 mm 5 mps 761 mmHg 86%
    06:00 +7°C° 0.4 mm 4 mps 761 mmHg 85%
    07:00 +8°C° 0.4 mm 3 mps 762 mmHg 83%
    08:00 +8°C° 0.4 mm 3 mps 762 mmHg 82%
    09:00 +8°C° 0 mm 3 mps 762 mmHg 77%
    10:00 +9°C° 0 mm 2 mps 763 mmHg 73%
    11:00 +10°C° 0 mm 2 mps 763 mmHg 69%
    12:00 +10°C° 0 mm 2 mps 763 mmHg 67%
    13:00 +10°C° 0 mm 2 mps 762 mmHg 65%
    14:00 +12°C° 0 mm 2 mps 762 mmHg 63%
    15:00 +10°C° 0.2 mm 2 mps 762 mmHg 64%
    16:00 +10°C° 0.2 mm 2 mps 762 mmHg 66%
    17:00 +10°C° 0.2 mm 2 mps 762 mmHg 68%
    18:00 +10°C° 0.2 mm 1 mps 762 mmHg 71%
    19:00 +10°C° 0.2 mm 1 mps 763 mmHg 74%
    20:00 +9°C° 0.2 mm 1 mps 763 mmHg 77%
    21:00 +9°C° 0.2 mm 1 mps 763 mmHg 78%
    22:00 +9°C° 0.2 mm 1 mps 763 mmHg 80%
    23:00 +8°C° 0.2 mm 1 mps 764 mmHg 81%

    Day after tomorrow, 16 November, Friday

    Time Temperature Precipitation Wind Pressure Humidity
    00:00 +7°C° 0.1 mm 2 mps 764 mmHg 83%
    01:00 +7°C° 0.1 mm 2 mps 764 mmHg 85%
    02:00 +6°C° 0.1 mm 2 mps 764 mmHg 87%
    03:00 +6°C° 0 mm 2 mps 764 mmHg 88%
    04:00 +6°C° 0 mm 2 mps 764 mmHg 89%
    05:00 +5°C° 0 mm 2 mps 764 mmHg 89%
    06:00 +5°C° 0 mm 2 mps 765 mmHg 88%
    07:00 +4°C° 0 mm 3 mps 765 mmHg 86%
    08:00 +4°C° 0 mm 3 mps 766 mmHg 85%
    09:00 +4°C° 0 mm 4 mps 766 mmHg 78%
    10:00 +5°C° 0 mm 4 mps 766 mmHg 72%
    11:00 +5°C° 0 mm 5 mps 766 mmHg 65%
    12:00 +6°C° 0.1 mm 5 mps 766 mmHg 64%
    13:00 +6°C° 0.1 mm 4 mps 766 mmHg 62%
    14:00 +6°C° 0.1 mm 4 mps 766 mmHg 60%
    15:00 +7°C° 0 mm 3 mps 766 mmHg 59%
    16:00 +7°C° 0 mm 3 mps 766 mmHg 58%
    17:00 +6°C° 0 mm 2 mps 766 mmHg 57%
    18:00 +6°C° 0 mm 2 mps 766 mmHg 58%
    19:00 +5°C° 0 mm 2 mps 767 mmHg 59%
    20:00 +5°C° 0 mm 2 mps 767 mmHg 61%
    21:00 +4°C° 0 mm 2 mps 767 mmHg 61%
    22:00 +3°C° 0 mm 3 mps 767 mmHg 61%
    23:00 +3°C° 0 mm 3 mps 767 mmHg 61%

    17 November, Saturday

    Time Temperature Precipitation Wind Pressure Humidity
    00:00 +4°C° 0 mm 2 mps 767 mmHg 62%
    01:00 +4°C° 0 mm 2 mps 767 mmHg 62%
    02:00 +3°C° 0 mm 2 mps 767 mmHg 63%
    03:00 +3°C° 0 mm 2 mps 767 mmHg 64%
    04:00 +3°C° 0 mm 2 mps 767 mmHg 64%
    05:00 +3°C° 0 mm 2 mps 768 mmHg 65%
    06:00 +3°C° 0 mm 2 mps 768 mmHg 65%
    07:00 +2°C° 0 mm 3 mps 768 mmHg 65%
    08:00 +2°C° 0 mm 3 mps 768 mmHg 66%
    09:00 +2°C° 0 mm 3 mps 768 mmHg 63%
    10:00 +3°C° 0 mm 3 mps 768 mmHg 61%
    11:00 +3°C° 0 mm 4 mps 768 mmHg 59%
    12:00 +4°C° 0 mm 4 mps 768 mmHg 58%
    13:00 +4°C° 0 mm 3 mps 768 mmHg 58%
    14:00 +4°C° 0 mm 3 mps 768 mmHg 58%
    15:00 +4°C° 0 mm 3 mps 768 mmHg 60%
    16:00 +3°C° 0 mm 3 mps 768 mmHg 62%
    17:00 +3°C° 0 mm 3 mps 768 mmHg 63%
    18:00 +4°C° 0 mm 2 mps 768 mmHg 65%
    19:00 +4°C° 0 mm 2 mps 768 mmHg 66%
    20:00 +3°C° 0 mm 2 mps 769 mmHg 67%
    21:00 +3°C° 0 mm 2 mps 769 mmHg 66%
    22:00 +3°C° 0 mm 2 mps 769 mmHg 65%
    23:00 +3°C° 0 mm 2 mps 769 mmHg 64%

    18 November, Sunday

    Time Temperature Precipitation Wind Pressure Humidity
    00:00 +2°C° 0 mm 2 mps 769 mmHg 65%
    01:00 +2°C° 0 mm 2 mps 769 mmHg 65%
    02:00 +3°C° 0 mm 1 mps 768 mmHg 65%
    03:00 +2°C° 0 mm 1 mps 768 mmHg 65%
    04:00 +2°C° 0 mm 1 mps 768 mmHg 66%
    05:00 +2°C° 0 mm 1 mps 768 mmHg 66%
    06:00 +2°C° 0 mm 1 mps 768 mmHg 65%
    07:00 +2°C° 0 mm 1 mps 767 mmHg 64%
    08:00 +2°C° 0 mm 1 mps 767 mmHg 64%
    09:00 +2°C° 0 mm 2 mps 767 mmHg 58%
    10:00 +3°C° 0 mm 2 mps 767 mmHg 52%
    11:00 +3°C° 0 mm 3 mps 767 mmHg 47%
    12:00 +4°C° 0 mm 3 mps 766 mmHg 44%
    13:00 +5°C° 0 mm 3 mps 765 mmHg 42%
    14:00 +7°C° 0 mm 3 mps 764 mmHg 39%
    15:00 +6°C° 0 mm 2 mps 764 mmHg 42%
    16:00 +5°C° 0 mm 2 mps 763 mmHg 45%
    17:00 +5°C° 0 mm 1 mps 763 mmHg 47%
    18:00 +5°C° 0 mm 1 mps 762 mmHg 49%
    19:00 +4°C° 0 mm 1 mps 762 mmHg 50%
    20:00 +4°C° 0 mm 1 mps 762 mmHg 51%
    21:00 +4°C° 0 mm 1 mps 761 mmHg 52%
    22:00 +3°C° 0 mm 1 mps 761 mmHg 53%
    23:00 +2°C° 0 mm 0 mps 760 mmHg 54%

    19 November, Monday

    Time Temperature Precipitation Wind Pressure Humidity
    00:00 +2°C° 0 mm 0 mps 760 mmHg 55%
    01:00 +2°C° 0 mm 0 mps 759 mmHg 56%
    02:00 +1°C° 0 mm 0 mps 758 mmHg 57%
    03:00 +1°C° 0 mm 0 mps 758 mmHg 57%
    04:00 +1°C° 0 mm 0 mps 758 mmHg 57%
    05:00 +1°C° 0 mm 0 mps 757 mmHg 58%
    06:00 +1°C° 0 mm 0 mps 757 mmHg 57%
    07:00 +1°C° 0 mm 0 mps 757 mmHg 57%
    08:00 +1°C° 0 mm 0 mps 757 mmHg 57%
    09:00 +4°C° 0 mm 1 mps 757 mmHg 52%
    10:00 +5°C° 0 mm 1 mps 756 mmHg 47%
    11:00 +7°C° 0 mm 1 mps 756 mmHg 42%
    12:00 +7°C° 0 mm 1 mps 756 mmHg 41%
    13:00 +7°C° 0 mm 2 mps 755 mmHg 39%
    14:00 +7°C° 0 mm 2 mps 755 mmHg 38%
    15:00 +7°C° 0 mm 2 mps 755 mmHg 40%
    16:00 +6°C° 0 mm 2 mps 755 mmHg 42%
    17:00 +6°C° 0 mm 2 mps 755 mmHg 45%
    18:00 +6°C° 0.2 mm 2 mps 755 mmHg 48%
    19:00 +5°C° 0.2 mm 2 mps 755 mmHg 51%
    20:00 +5°C° 0.2 mm 2 mps 755 mmHg 54%
    21:00 +5°C° 0.5 mm 2 mps 755 mmHg 60%
    22:00 +4°C° 0.5 mm 2 mps 755 mmHg 65%
    23:00 +4°C° 0.5 mm 2 mps 755 mmHg 71%
    Show more